• In Uzbekistan
  • List of Countries
  • For 7 days
  • Water Temperature
  • Weather Map
  • Weather Widgets
  • user-avatar
    Login

    Hourly Weather Kurytyba

    Today, 16 December, Monday

    Time Temperature Precipitation Wind Pressure Humidity
    00:00 +19°C° 0.5 mm 2 mps 681 mmHg 92%
    01:00 +19°C° 0.2 mm 2 mps 680 mmHg 91%
    02:00 +19°C° 0.2 mm 2 mps 680 mmHg 90%
    03:00 +19°C° 0.2 mm 2 mps 680 mmHg 90%
    04:00 +19°C° 0 mm 2 mps 679 mmHg 90%
    05:00 +20°C° 0 mm 1 mps 679 mmHg 90%
    06:00 +20°C° 0 mm 1 mps 679 mmHg 90%
    07:00 +21°C° 0 mm 1 mps 679 mmHg 86%
    08:00 +22°C° 0 mm 1 mps 680 mmHg 82%
    09:00 +23°C° 0 mm 2 mps 680 mmHg 78%
    10:00 +25°C° 0.1 mm 2 mps 680 mmHg 69%
    11:00 +27°C° 0.1 mm 3 mps 680 mmHg 60%
    12:00 +29°C° 0.1 mm 3 mps 680 mmHg 50%
    13:00 +28°C° 0.9 mm 3 mps 680 mmHg 61%
    14:00 +26°C° 0.9 mm 3 mps 679 mmHg 72%
    15:00 +24°C° 0.9 mm 3 mps 678 mmHg 83%
    16:00 +23°C° 3.5 mm 2 mps 678 mmHg 87%
    17:00 +21°C° 3.5 mm 2 mps 678 mmHg 91%
    18:00 +20°C° 3.5 mm 2 mps 677 mmHg 95%
    19:00 +20°C° 4.4 mm 2 mps 678 mmHg 95%
    20:00 +20°C° 4.4 mm 2 mps 679 mmHg 95%
    21:00 +20°C° 4.4 mm 2 mps 679 mmHg 95%
    22:00 +19°C° 1.6 mm 2 mps 679 mmHg 95%
    23:00 +20°C° 1.6 mm 1 mps 679 mmHg 96%

    Tomorrow, 17 December, Tuesday

    Time Temperature Precipitation Wind Pressure Humidity
    00:00 +20°C° 1.6 mm 1 mps 679 mmHg 96%
    01:00 +20°C° 0.2 mm 1 mps 678 mmHg 96%
    02:00 +20°C° 0.2 mm 1 mps 678 mmHg 96%
    03:00 +19°C° 0.2 mm 1 mps 678 mmHg 96%
    04:00 +19°C° 0 mm 1 mps 678 mmHg 96%
    05:00 +19°C° 0 mm 1 mps 678 mmHg 96%
    06:00 +19°C° 0 mm 1 mps 678 mmHg 96%
    07:00 +20°C° 1.4 mm 1 mps 678 mmHg 95%
    08:00 +20°C° 1.4 mm 1 mps 678 mmHg 95%
    09:00 +21°C° 1.4 mm 1 mps 679 mmHg 94%
    10:00 +21°C° 2.9 mm 1 mps 679 mmHg 94%
    11:00 +21°C° 2.9 mm 1 mps 678 mmHg 95%
    12:00 +21°C° 2.9 mm 1 mps 678 mmHg 95%
    13:00 +21°C° 3.9 mm 1 mps 678 mmHg 95%
    14:00 +19°C° 3.9 mm 0 mps 678 mmHg 96%
    15:00 +19°C° 3.9 mm 0 mps 677 mmHg 96%
    16:00 +21°C° 5.3 mm 1 mps 677 mmHg 96%
    17:00 +20°C° 5.3 mm 1 mps 677 mmHg 97%
    18:00 +20°C° 5.3 mm 1 mps 677 mmHg 98%
    19:00 +19°C° 12.7 mm 2 mps 678 mmHg 98%
    20:00 +18°C° 12.7 mm 2 mps 678 mmHg 98%
    21:00 +18°C° 12.7 mm 2 mps 679 mmHg 98%
    22:00 +17°C° 6.8 mm 2 mps 679 mmHg 97%
    23:00 +17°C° 6.8 mm 2 mps 679 mmHg 97%

    Day after tomorrow, 18 December, Wednesday

    Time Temperature Precipitation Wind Pressure Humidity
    00:00 +17°C° 6.8 mm 2 mps 679 mmHg 97%
    01:00 +17°C° 1.1 mm 3 mps 679 mmHg 97%
    02:00 +16°C° 1.1 mm 3 mps 679 mmHg 96%
    03:00 +16°C° 1.1 mm 3 mps 679 mmHg 96%
    04:00 +16°C° 0.4 mm 3 mps 679 mmHg 96%
    05:00 +16°C° 0.4 mm 2 mps 679 mmHg 96%
    06:00 +15°C° 0.4 mm 2 mps 680 mmHg 96%
    07:00 +15°C° 0.5 mm 2 mps 680 mmHg 96%
    08:00 +15°C° 0.5 mm 2 mps 681 mmHg 96%
    09:00 +15°C° 0.5 mm 2 mps 681 mmHg 96%
    10:00 +16°C° 0 mm 2 mps 681 mmHg 93%
    11:00 +16°C° 0 mm 2 mps 681 mmHg 90%
    12:00 +17°C° 0 mm 2 mps 682 mmHg 87%
    13:00 +17°C° 0 mm 2 mps 681 mmHg 88%
    14:00 +17°C° 0 mm 2 mps 681 mmHg 89%
    15:00 +17°C° 0 mm 2 mps 681 mmHg 90%
    16:00 +17°C° 0 mm 2 mps 681 mmHg 90%
    17:00 +16°C° 0 mm 2 mps 681 mmHg 91%
    18:00 +16°C° 0 mm 2 mps 681 mmHg 92%
    19:00 +16°C° 0.1 mm 2 mps 681 mmHg 93%
    20:00 +16°C° 0.1 mm 2 mps 682 mmHg 93%
    21:00 +17°C° 0.1 mm 2 mps 682 mmHg 94%
    22:00 +17°C° 0.1 mm 2 mps 682 mmHg 94%
    23:00 +17°C° 0.1 mm 2 mps 682 mmHg 94%

    19 December, Thursday

    Time Temperature Precipitation Wind Pressure Humidity
    00:00 +18°C° 0.1 mm 1 mps 682 mmHg 94%
    01:00 +18°C° 0 mm 1 mps 682 mmHg 94%
    02:00 +18°C° 0 mm 1 mps 681 mmHg 95%
    03:00 +18°C° 0 mm 1 mps 681 mmHg 95%
    04:00 +16°C° 0 mm 1 mps 681 mmHg 95%
    05:00 +16°C° 0 mm 1 mps 682 mmHg 95%
    06:00 +16°C° 0 mm 1 mps 682 mmHg 95%
    07:00 +18°C° 0.1 mm 1 mps 682 mmHg 95%
    08:00 +18°C° 0.1 mm 1 mps 682 mmHg 96%
    09:00 +18°C° 0.1 mm 1 mps 683 mmHg 96%
    10:00 +18°C° 0.1 mm 1 mps 683 mmHg 94%
    11:00 +18°C° 0.1 mm 1 mps 683 mmHg 93%
    12:00 +19°C° 0.1 mm 1 mps 683 mmHg 92%
    13:00 +18°C° 0.2 mm 1 mps 682 mmHg 93%
    14:00 +18°C° 0.2 mm 1 mps 682 mmHg 94%
    15:00 +18°C° 0.2 mm 1 mps 681 mmHg 94%
    16:00 +18°C° 0.1 mm 1 mps 681 mmHg 94%
    17:00 +18°C° 0.1 mm 1 mps 681 mmHg 94%
    18:00 +18°C° 0.1 mm 1 mps 681 mmHg 93%
    19:00 +18°C° 0 mm 1 mps 682 mmHg 94%
    20:00 +18°C° 0 mm 1 mps 682 mmHg 95%
    21:00 +18°C° 0 mm 1 mps 682 mmHg 96%
    22:00 +18°C° 0 mm 1 mps 682 mmHg 96%
    23:00 +18°C° 0 mm 1 mps 682 mmHg 96%

    20 December, Friday

    Time Temperature Precipitation Wind Pressure Humidity
    00:00 +16°C° 0 mm 0 mps 682 mmHg 96%
    01:00 +16°C° 0 mm 0 mps 681 mmHg 96%
    02:00 +16°C° 0 mm 0 mps 681 mmHg 96%
    03:00 +16°C° 0 mm 0 mps 680 mmHg 96%
    04:00 +16°C° 0 mm 0 mps 680 mmHg 96%
    05:00 +16°C° 0 mm 0 mps 680 mmHg 97%
    06:00 +15°C° 0 mm 0 mps 680 mmHg 97%
    07:00 +18°C° 0 mm 0 mps 681 mmHg 88%
    08:00 +22°C° 0 mm 1 mps 682 mmHg 78%
    09:00 +24°C° 0 mm 1 mps 682 mmHg 68%
    10:00 +25°C° 0.1 mm 1 mps 682 mmHg 67%
    11:00 +26°C° 0.1 mm 1 mps 682 mmHg 66%
    12:00 +27°C° 0.1 mm 1 mps 682 mmHg 64%
    13:00 +27°C° 0.4 mm 1 mps 681 mmHg 64%
    14:00 +27°C° 0.4 mm 1 mps 680 mmHg 64%
    15:00 +28°C° 0.4 mm 2 mps 679 mmHg 63%
    16:00 +26°C° 0.4 mm 2 mps 679 mmHg 70%
    17:00 +25°C° 0.4 mm 2 mps 679 mmHg 77%
    18:00 +24°C° 0.4 mm 2 mps 679 mmHg 84%
    19:00 +23°C° 0.2 mm 1 mps 679 mmHg 87%
    20:00 +22°C° 0.2 mm 1 mps 679 mmHg 91%
    21:00 +21°C° 0.2 mm 1 mps 679 mmHg 95%
    22:00 +21°C° 0.1 mm 1 mps 679 mmHg 95%
    23:00 +21°C° 0.1 mm 1 mps 679 mmHg 95%

    21 December, Saturday

    Time Temperature Precipitation Wind Pressure Humidity
    00:00 +20°C° 0.1 mm 1 mps 679 mmHg 96%
    01:00 +20°C° 0 mm 1 mps 678 mmHg 96%
    02:00 +20°C° 0 mm 1 mps 678 mmHg 96%
    03:00 +20°C° 0 mm 1 mps 678 mmHg 96%
    04:00 +20°C° 0.4 mm 1 mps 678 mmHg 96%
    05:00 +20°C° 0.4 mm 1 mps 678 mmHg 96%
    06:00 +20°C° 0.4 mm 1 mps 678 mmHg 97%
    07:00 +21°C° 0 mm 2 mps 679 mmHg 90%
    08:00 +23°C° 0 mm 2 mps 679 mmHg 82%
    09:00 +25°C° 0 mm 2 mps 679 mmHg 75%
    10:00 +26°C° 0.4 mm 2 mps 679 mmHg 72%
    11:00 +27°C° 0.4 mm 3 mps 679 mmHg 69%
    12:00 +29°C° 0.4 mm 3 mps 679 mmHg 66%
    13:00 +28°C° 1.7 mm 3 mps 678 mmHg 70%
    14:00 +27°C° 1.7 mm 3 mps 677 mmHg 74%
    15:00 +27°C° 1.7 mm 3 mps 677 mmHg 78%
    16:00 +26°C° 0.5 mm 3 mps 677 mmHg 80%
    17:00 +25°C° 0.5 mm 2 mps 676 mmHg 82%
    18:00 +25°C° 0.5 mm 2 mps 676 mmHg 84%
    19:00 +24°C° 1 mm 1 mps 676 mmHg 86%
    20:00 +23°C° 1 mm 1 mps 676 mmHg 88%
    21:00 +22°C° 1 mm 1 mps 677 mmHg 91%
    22:00 +22°C° 0.2 mm 1 mps 677 mmHg 91%
    23:00 +22°C° 0.2 mm 1 mps 677 mmHg 91%
    Show more